sat.trackr.live / text

‹ back to catalog

LES-5

NORAD 2866 · 1967-066E

PAYLOAD ACTIVE UNKNOWN

§ Identity

Operator
Country
US
Launch date
1967-07-01
Launch site
AFETR
Launch vehicle
Mass (kg)
RCS (m²)
2.56

External: N2YO · Heavens-Above · Gunter

§ Orbital elements

Epoch: 2026-09-03T22:07:21.525024Z

Period
1,315.98 min
Inclination
2.8011°
Eccentricity
0.0051687
Mean motion
1.09424261 rev/d
Perigee alt
33,195.8 km
Apogee alt
33,607.0 km
Semi-major
39,779.5 km
B*
0.0000e+0
RAAN
94.0634°
Arg perigee
214.7956°
Mean anomaly
86.8550°
Rev number
13,189

§ Raw data

LES-51 02866U 67066E   26246.92177691 -.00000121  00000+0  00000+0 0  99922 02866   2.8011  94.0634 0051687 214.7956  86.8550  1.09424261131896

JSON: /api/v1/satellites/2866 · /tle

For live sub-satellite position, see the globe view (requires WebGL).

§ Visibility from observer

Set your observer location to see the next 7 days of passes ≥ 10°. The values pass through the URL so the page stays shareable.

No JS? Fill the form by hand. The geolocation button needs JavaScript.